DW6873 Weather Reports


Display with metric or nautical units.
time (UTC)temp
F
wind
direction
speed
MPH
gust
MPH
rain 1hr
in
rain 24hr
in
rain mn
in
humidity
%
barometer
mb
20260905203026 91 146 0.0 0.0 0.00 0.00 0.00 44 1006.6
20260905201525 91 107 0.0 0.0 0.00 0.00 0.00 44 1006.7
20260905200028 90 149 0.0 0.0 0.00 0.00 0.00 45 1006.8
20260905194516 90 110 0.0 0.0 0.00 0.00 0.00 46 1006.8
20260905193013 90 109 0.0 0.0 0.00 0.00 0.00 46 1007.0
20260905191512 89 112 0.0 1.0 0.00 0.00 0.00 46 1007.1
20260905190051 89 104 0.0 0.0 0.00 0.00 0.00 45 1007.2
20260905184542 89 133 0.0 0.0 0.00 0.00 0.00 48 1007.2
20260905183007 88 171 0.0 0.0 0.00 0.00 0.00 47 1007.6
20260905181504 88 126 0.0 1.0 0.00 0.00 0.00 50 1007.7
20260905180032 88 136 0.0 0.0 0.00 0.00 0.00 50 1007.9
20260905174529 87 147 0.0 0.0 0.00 0.00 0.00 52 1008.0
20260905173024 86 134 0.0 0.0 0.00 0.00 0.00 52 1008.3
20260905171522 86 86 0.0 0.0 0.00 0.00 0.00 53 1008.2
20260905170020 83 144 0.0 0.0 0.00 0.00 0.00 58 1008.2
20260905164516 82 65 0.0 0.0 0.00 0.00 0.00 61 1008.4
20260905163013 82 70 0.0 0.0 0.00 0.00 0.00 60 1008.4
20260905161510 81 97 0.0 0.0 0.00 0.00 0.00 62 1008.5
20260905160016 80 103 0.0 0.0 0.00 0.00 0.00 64 1008.5
20260905154509 80 102 0.0 0.0 0.00 0.00 0.00 65 1008.4
20260905153002 78 110 0.0 0.0 0.00 0.00 0.00 69 1008.4
20260905151606 78 79 0.0 0.0 0.00 0.00 0.00 68 1008.3
20260905150058 78 89 0.0 0.0 0.00 0.00 0.00 67 1008.5
20260905144558 78 60 0.0 0.0 0.00 0.00 0.00 71 1008.4
20260905143052 77 104 0.0 0.0 0.00 0.00 0.00 70 1008.4
20260905141600 77 34 0.0 0.0 0.00 0.00 0.00 70 1008.7
20260905140050 74 352 0.0 0.0 0.00 0.00 0.00 76 1008.6
20260905134549 73 357 0.0 0.0 0.00 0.00 0.00 78 1008.5
20260905133045 72 311 0.0 0.0 0.00 0.00 0.00 78 1008.4
20260905131539 0 0.0 0.0 0.00 0.00 0.00 1008.1
20260905130034 0 0.0 0.0 0.00 0.00 0.00 1006.7
20260905124531 0 0.0 0.0 0.00 0.00 0.00 1006.3
20260905123025 0 0.0 0.0 0.00 0.00 0.00 1006.3
20260905121519 0 0.0 0.0 0.00 0.00 0.00 1006.1
20260905120019 0 0.0 0.0 0.00 0.00 0.00 1006.0
20260905114512 0 0.0 0.0 0.00 0.00 0.00 1005.8
20260905113005 0 0.0 0.0 0.00 0.00 0.00 1005.7
20260905111559 0 0.0 0.0 0.00 0.00 0.00 1005.7
20260905110056 0 0.0 0.0 0.00 0.00 0.00 1005.8
20260905104554 0 0.0 0.0 0.00 0.00 0.00 1005.7
20260905103050 0 0.0 0.0 0.00 0.00 0.00 1005.6
20260905101512 0 0.0 0.0 0.00 0.00 0.00 1005.7
20260905100009 68 120 0.0 0.0 0.00 0.00 0.00 83 1005.6
20260905094504 69 131 0.0 0.0 0.00 0.00 0.00 83 1005.5
20260905093002 69 126 0.0 0.0 0.00 0.00 0.00 82 1005.6
20260905091600 69 134 0.0 1.0 0.00 0.00 0.00 81 1005.5
20260905091502 69 152 0.0 1.0 0.00 0.00 0.00 81 1005.5
20260905090134 69 138 0.0 0.0 0.00 0.00 0.00 81 1005.5
20260905084553 69 127 0.0 0.0 0.00 0.00 0.00 81 1005.7
20260905083054 70 117 0.0 1.0 0.00 0.00 0.00 80 1006.0
20260905081558 70 131 0.0 1.0 0.00 0.00 0.00 79 1006.1
20260905080054 70 154 0.0 0.0 0.00 0.00 0.00 79 1006.2
20260905074548 70 129 0.0 0.0 0.00 0.00 0.00 79 1006.4
20260905073043 70 142 0.0 0.0 0.00 0.00 0.00 78 1006.3
20260905071542 70 117 0.0 1.0 0.00 0.00 0.00 78 1006.3
20260905070039 70 142 0.0 1.0 0.00 0.00 0.00 79 1006.5
20260905064536 70 124 0.0 0.0 0.00 0.00 0.00 79 1006.7
20260905063035 70 86 0.0 1.0 0.00 0.00 0.00 80 1006.7
20260905061534 70 146 0.0 0.0 0.00 0.00 0.00 80 1006.8
20260905060044 70 91 0.0 0.0 0.00 0.00 0.00 81 1006.8
20260905054502 70 126 0.0 0.0 0.00 0.00 0.00 81 1006.8
20260905053100 71 105 0.0 1.0 0.00 0.00 0.00 80 1007.0
20260905051557 71 106 0.0 1.0 0.00 0.00 0.00 79 1007.0
20260905050105 71 112 0.0 1.0 0.00 0.00 0.00 78 1007.1
20260905044553 72 147 0.0 1.0 0.00 0.00 0.00 77 1007.1
20260905043050 72 98 0.0 0.0 0.00 0.00 0.00 76 1007.3
20260905041544 72 123 0.0 0.0 0.00 0.00 0.00 74 1007.6
20260905040041 72 131 0.0 0.0 0.00 0.00 0.00 72 1007.7
20260905034539 73 125 0.0 0.0 0.00 0.00 0.00 70 1007.9
20260905033037 73 131 0.0 0.0 0.00 0.00 0.00 68 1007.9
20260905031538 74 150 0.0 0.0 0.00 0.00 0.00 66 1007.8
20260905030029 74 146 0.0 0.0 0.00 0.00 0.00 65 1008.0
20260905024532 75 123 0.0 1.0 0.00 0.00 0.00 63 1007.9
20260905023030 75 136 0.0 1.0 0.00 0.00 0.00 61 1007.9
20260905021522 76 134 0.0 1.0 0.00 0.00 0.00 59 1007.7
20260905020021 77 184 0.0 0.0 0.00 0.00 0.00 55 1007.5
20260905014520 78 139 0.0 1.0 0.00 0.00 0.00 51 1007.3
20260905013019 79 100 0.0 0.0 0.00 0.00 0.00 47 1007.3
20260905011517 79 134 0.0 0.0 0.00 0.00 0.00 45 1007.1
20260905010016 79 119 0.0 0.0 0.00 0.00 0.00 56 1007.3
20260905004516 81 132 0.0 0.0 0.00 0.00 0.00 57 1007.1
20260905003027 83 122 0.0 0.0 0.00 0.00 0.00 53 1007.1
20260905001514 85 91 0.0 0.0 0.00 0.00 0.00 49 1007.0
20260905000057 86 113 0.0 1.0 0.00 0.00 0.00 46 1007.0
20260904234543 88 126 0.0 0.0 0.00 0.00 0.00 38 1006.8
20260904233041 89 142 0.0 1.0 0.00 0.00 0.00 31 1006.8
20260904231548 89 124 0.0 2.0 0.00 0.00 0.00 30 1006.6
20260904230054 89 126 0.0 3.0 0.00 0.00 0.00 34 1006.7
20260904224537 90 128 0.0 1.0 0.00 0.00 0.00 33 1006.7
20260904223035 89 105 0.0 1.0 0.00 0.00 0.00 34 1006.8
20260904221532 90 127 0.0 1.0 0.00 0.00 0.00 36 1006.9
20260904220032 90 133 0.0 2.0 0.00 0.00 0.00 36 1006.9
20260904214533 90 124 0.0 1.0 0.00 0.00 0.00 36 1007.0
20260904213027 89 107 0.0 1.0 0.00 0.00 0.00 38 1007.0
20260904211527 89 117 0.0 1.0 0.00 0.00 0.00 38 1007.2
20260904210031 89 110 0.0 1.0 0.00 0.00 0.00 36 1007.2
20260904204526 89 98 0.0 1.0 0.00 0.00 0.00 36 1007.4